TimeEST,TemperatureF,Dew PointF,Humidity,Sea Level PressureIn,VisibilityMPH,Wind Direction,Wind SpeedMPH,Gust SpeedMPH,PrecipitationIn,Events,Conditions,WindDirDegrees,DateUTC
12:41 AM,37.4,35.6,93,29.79,5.0,NNE,12.7,18.4,0.01,,Light Drizzle,30,2013-02-24 05:41:00
12:51 AM,37.9,35.1,89,29.80,5.0,NNE,10.4,-,0.01,,Light Drizzle,20,2013-02-24 05:51:00
1:51 AM,37.9,35.1,89,29.80,5.0,NNW,9.2,-,0.00,,Light Drizzle,340,2013-02-24 06:51:00
2:51 AM,37.0,35.1,93,29.78,3.0,NNW,9.2,-,0.01,,Light Drizzle,340,2013-02-24 07:51:00
3:51 AM,37.0,34.0,89,29.79,5.0,NW,11.5,-,0.01,,Light Drizzle,320,2013-02-24 08:51:00
3:58 AM,37.4,33.8,87,29.79,10.0,NW,12.7,-,0.00,,Light Drizzle,320,2013-02-24 08:58:00
4:51 AM,37.9,34.0,86,29.76,10.0,North,9.2,-,0.00,,Overcast,360,2013-02-24 09:51:00
5:47 AM,37.4,33.8,87,29.75,10.0,NNW,8.1,-,N/A,,Overcast,340,2013-02-24 10:47:00
5:51 AM,37.9,34.0,86,29.75,10.0,North,10.4,-,N/A,,Overcast,350,2013-02-24 10:51:00
6:51 AM,37.9,34.0,86,29.76,10.0,NNW,11.5,-,N/A,,Overcast,330,2013-02-24 11:51:00
7:02 AM,37.4,33.8,87,29.76,10.0,NNW,13.8,-,N/A,,Overcast,330,2013-02-24 12:02:00
7:51 AM,37.9,34.0,86,29.77,10.0,NNW,10.4,-,N/A,,Overcast,330,2013-02-24 12:51:00
8:51 AM,39.9,34.0,79,29.77,10.0,NNW,12.7,-,N/A,,Overcast,330,2013-02-24 13:51:00
9:44 AM,39.2,35.6,87,29.77,10.0,NW,8.1,-,N/A,,Mostly Cloudy,320,2013-02-24 14:44:00
9:51 AM,39.9,35.1,83,29.76,10.0,NW,9.2,-,N/A,,Mostly Cloudy,320,2013-02-24 14:51:00
10:45 AM,42.8,35.6,76,29.76,10.0,NW,15.0,-,N/A,,Mostly Cloudy,320,2013-02-24 15:45:00
10:51 AM,43.0,35.1,74,29.75,10.0,NW,13.8,-,N/A,,Mostly Cloudy,310,2013-02-24 15:51:00
11:51 AM,42.1,34.0,73,29.77,10.0,NW,17.3,-,N/A,,Mostly Cloudy,320,2013-02-24 16:51:00
12:20 PM,44.6,33.8,66,29.76,10.0,NW,15.0,-,N/A,,Mostly Cloudy,320,2013-02-24 17:20:00
12:51 PM,44.1,32.0,63,29.75,10.0,NW,10.4,-,N/A,,Overcast,320,2013-02-24 17:51:00
1:51 PM,45.0,32.0,60,29.73,10.0,NNW,8.1,-,N/A,,Overcast,340,2013-02-24 18:51:00
2:51 PM,45.0,32.0,60,29.75,10.0,NW,13.8,-,N/A,,Mostly Cloudy,310,2013-02-24 19:51:00
3:51 PM,43.0,26.1,51,29.77,10.0,NW,19.6,-,N/A,,Mostly Cloudy,310,2013-02-24 20:51:00
4:51 PM,41.0,26.1,55,29.81,10.0,NW,23.0,28.8,N/A,,Mostly Cloudy,320,2013-02-24 21:51:00
5:51 PM,39.0,24.1,55,29.85,10.0,NW,18.4,27.6,N/A,,Mostly Cloudy,310,2013-02-24 22:51:00
6:51 PM,37.9,23.0,55,29.87,10.0,NW,21.9,29.9,N/A,,Mostly Cloudy,310,2013-02-24 23:51:00
7:51 PM,37.0,23.0,57,29.91,9.0,NW,18.4,28.8,0.00,Snow,Light Snow,320,2013-02-25 00:51:00
8:51 PM,36.0,21.9,57,29.94,10.0,NW,18.4,23.0,0.00,,Mostly Cloudy,310,2013-02-25 01:51:00
9:51 PM,36.0,21.9,57,29.95,10.0,NW,18.4,-,N/A,,Scattered Clouds,320,2013-02-25 02:51:00
10:51 PM,35.1,21.0,57,29.96,10.0,NW,15.0,-,N/A,,Partly Cloudy,310,2013-02-25 03:51:00
11:51 PM,35.1,21.0,57,29.96,10.0,NW,15.0,-,N/A,,Partly Cloudy,310,2013-02-25 04:51:00